Location: *
(45.1961°N, 1.9694°E)
Time: 05:43:07
(UTC+00:00)

TSX-5 - Pass Details

Date: 25 August 2019
Orbit: 405 x 1332 km, 68.9° (Epoch: 21 September)

Event Time Altitude Azimuth Distance (km) Brightness Sun altitude
Rises 19:19:26 0° 334° (NNW) 2,437 8.0 -6.9°
Reaches altitude 10° 19:21:23 10° 338° (NNW) 1,627 6.9 -7.2°
Maximum altitude 19:24:53 62° 60° (ENE) 599 3.8 -7.8°
Drops below altitude 10° 19:29:12 10° 141° (SE) 1,992 6.1 -8.5°
Enters shadow 19:29:44 - 142° (SE) 2,210 6.3 -8.6°
